TIMESTAMP,CO2_1_1_1,H2O_1_1_1,TAU_1_1_1,TAU_SSITC_TEST_1_1_1,H_1_1_1,H_SSITC_TEST_1_1_1,LE_1_1_1,LE_SSITC_TEST_1_1_1,FC_1_1_1,FC_SSITC_TEST_1_1_1,WD_0_0_1,WS_0_0_1,WS_MAX_0_0_1,U_SIGMA_0_0_1,V_SIGMA_0_0_1,W_SIGMA_0_0_1,USTAR_0_0_1,MO_LENGTH_0_0_1,ZL_0_0_1,FETCH_MAX_0_0_1,FETCH_70_0_0_1,FETCH_80_0_0_1,FETCH_90_0_0_1,PA_0_0_1,RH_0_0_1,TA_0_0_1,VPD_0_0_1,T_SONIC_0_0_1,T_SONIC_SIGMA_0_0_1
[yyyymmddHHMMSS],[mmolCO2 mol-1],[mmolH2O mol-1],[kg m-1 s-2],[#],[W m-2],[#],[W m-2],[#],[umolCO2 m-2 s-1],[#],[Decimal degrees],[m s-1],[m s-1],[m s-1],[m s-1],[m s-1],[m s-1],[m],[#],[m],[m],[m],[m],[kPa],[%],[deg C],[hPa],[deg C],[deg C]
20240212003000,420.43734097881571,2.6936591104992065,0.21017558521388952,0,-7.2594691581556878,2,0.43739252125036343,2,0.47361665964442368,1,242.13983442236028,2.4783365613112602,6.4875570888002301,0.82899782545267930,0.77785791252223235,0.53721635571573478,0.41701032868741095,832.53325776378881,2.2821911104229774E-002,102.24756358656826,186.94115642408454,223.72081880206974,280.07191746207280,94.014313965495077,49.680333333333337,-2.4300000000000068,2.5657028037840157,-2.2643266729589868,0.18439983690988226
20240212010000,420.33033887708501,2.6932623654694927,0.21733185532601187,0,-22.803849792447785,0,5.6398082332049606,0,1.2122213110962525,0,238.03906724159748,2.6456676925546256,5.9700691564882442,0.93272515988695393,0.75492175279089779,0.55669661334736709,0.42375508919834554,278.09835563097494,6.8321151906457933E-002,100.65885315100222,184.03648705466455,220.24467142978244,275.72019344662215,94.013650853267222,51.088999999999999,-2.8086666666666815,2.4247401288809232,-2.6223764860332608,0.12848198995724736
20240212013000,420.24034548829735,2.6418530099138131,9.0061321668167701E-002,0,-12.153337727753733,0,1.7082302085714127,0,0.35834849995879675,0,222.18267799948677,1.9501215353504573,4.7956320532858214,0.66106663403754207,0.50538454640549779,0.37368881994850306,0.27261489531916733,138.92276420296542,0.13676664230666402,97.294094635371593,177.88463535340401,212.88247614822166,266.50359858398133,94.002684812499993,51.491333333333330,-3.1743333333333226,2.3401871322296719,-3.0276387074788431,0.17922524957087660
20240212020000,420.43527502342795,2.6482429130273526,0.13380970681680401,0,-16.431150597542768,0,1.7114004710978958,1,0.52033409524330854,0,215.64667458910691,1.9434945973830486,4.6011336966767189,0.64438319395784405,0.48527307772931016,0.38260131161249283,0.33207083999903492,185.69865344040355,0.10231630465806091,111.80013521309822,204.40630399384037,244.62213978213703,306.23789108814253,93.992329493923606,53.155999999999999,-3.5693333333333612,2.1941604915290287,-3.4224118287827423,0.15056769262640624
20240212023000,420.72130938825984,2.7178591687650049,0.13544411101695630,1,-22.913735606243232,0,5.2355440503809199,1,1.0399111246154762,0,218.76412169824894,2.1076172221437743,4.6687957863980190,0.62517393263248600,0.62697135651015889,0.43287093382092523,0.33399105610771718,135.48204572908722,0.14023998455111022,101.75506345226297,186.04070910371294,222.64321333703953,278.72288329317126,93.987719023654520,55.308999999999997,-3.7536666666666747,2.0646136980289498,-3.5963718499077686,0.11066263491881684
20240212030000,420.95219286910964,2.8265497505113366,0.27041829235545989,0,-29.649204780637760,0,5.6434994119932549,0,1.2230310006780796,0,223.48665481869176,2.5334677544116722,5.8131103797127519,0.91095909766447114,0.74063476869479727,0.55915497869550723,0.47188331810327155,295.29874318772971,6.4341621623229081E-002,109.31930009175088,199.87054617023705,239.19399611599621,299.44249934509395,93.984850490017365,57.807333333333332,-3.8203333333333376,1.9394786668454276,-3.6414497867160094,0.11315658318624669
20240212033000,421.06715965764710,2.9036956157589993,0.22547689038831320,0,-14.325977570502587,0,3.3209656209268621,0,0.87514388380163077,0,219.74447553458515,2.3109853148826631,6.0813589381271145,0.96007371651850892,0.82577105657482675,0.60217659175417637,0.43105668000638753,465.84394463146606,4.0786190781187670E-002,95.830401586470742,175.20853763905845,209.67987066904314,262.49431655904101,93.980182195529522,58.561666666666667,-3.6346666666666465,1.9314910589004666,-3.4582472949557541,7.2292677181419920E-002
20240212040000,421.24575514271885,2.9482447888542045,0.33381848308401091,0,-16.248421118762945,0,6.2676501934402911,0,0.94222629377730227,0,216.33845984773814,2.2845865611437608,5.8383785913055277,1.0785736026011810,0.77605463784386963,0.59431926669569191,0.52466323529172354,740.45686105624236,2.5659833812461400E-002,113.32965288868554,207.20275011945674,247.96877157219353,310.42747696351836,93.951076092760260,59.049999999999997,-3.5463333333333367,1.9213911313144207,-3.3671574901155168,7.3154547746197257E-002
20240212043000,421.45373441680823,3.0024758331738814,0.25043681476981439,0,-1.9525726023642007,0,4.3256706261532196,0,0.77152372873976693,0,204.88287420904209,2.3362106676929115,5.3562851427800231,0.88728479879634647,0.77543183671883864,0.55441152658507364,0.45451943094944508,4005.3062042873134,4.7437072300894846E-003,106.81470919579594,195.29135521413531,233.71387408323167,292.58203685500973,93.924636580078143,60.050333333333334,-3.5310000000000059,1.8766066915750395,-3.3545858391723300,4.7643597404473957E-002
20240212050000,421.70977752983566,3.0677490578807549,0.18757954716730099,0,-3.4654387139575920,0,4.3686147191249818,0,0.72259826859975207,0,200.01647874998392,2.1115679331413588,5.7087911960510738,0.86635309537674210,0.72134867238967326,0.52002083663520016,0.39347535099643044,1463.7457614598129,1.2980396254777912E-002,100.17799341688212,183.15732209834673,219.19253551893297,274.40304413722765,93.888610502604166,61.146000000000001,-3.4903333333333535,1.8306988399757120,-3.3126404724121130,5.3671822908540737E-002
20240212053000,421.95918698923936,3.1291755994677324,0.16459714576547024,0,-5.1726973387094981,0,5.8829026797616466,0,1.0735240472319441,0,187.03596808673925,2.0164264483491121,4.4500575428704359,0.72618077772556888,0.71174001837549383,0.48423861350166991,0.36867569361570357,806.49107177028930,2.3558847289275039E-002,100.67530886645174,184.06657335078754,220.28067704209442,275.76526820065533,93.860567848958340,62.128333333333330,-3.4423333333333517,1.7908297748010620,-3.2598273162841451,5.2147757086331473E-002
20240212060000,422.21455348599125,3.1661207854519464,0.18198190492311717,0,-10.448799919776995,0,3.8614374903837652,0,0.80452980517873063,0,177.59776857755904,2.4217974388534218,5.2762247359752070,0.83893429382818530,0.72292377134083596,0.55297117898027393,0.38771293610313307,464.27316630274288,4.0924182957432637E-002,94.254292097751673,172.32690681934059,206.23129455662161,258.17710848921757,93.837392721571177,62.810333333333332,-3.4346666666666579,1.7595883508080681,-3.2436962170070842,7.7466694510921599E-002
20240212063000,422.61610976385492,3.2075468319712339,0.20737511422755603,0,-18.695634129328923,0,5.2683627696934989,0,1.0306214739875699,0,172.85862158737299,2.5298722448809650,6.3010032273505301,0.95028119581405945,0.92815347562300010,0.60535452660743583,0.41394301377862569,315.72753383231878,6.0178470244190992E-002,92.384584571682083,168.90848514905466,202.14031689436629,253.05568990914330,93.812876274083891,63.580666666666666,-3.4273333333333085,1.7240857055393173,-3.2219663723114991,0.10151106051747384
20240212070000,423.02902339529430,3.2595381496665139,0.24150061427958341,0,-19.630070110654941,0,4.5838069143743008,0,0.93508523453179782,0,179.55227744248421,2.6824865546763461,6.9580033349070973,1.1105610194236017,0.86214828918823716,0.65549152689926748,0.44689370362880326,378.26270296349634,5.0229641598668440E-002,92.164701893890623,168.50646948606862,201.65920682200502,252.45339718914502,93.772816401692722,64.070999999999998,-3.3206666666666820,1.7144828097754516,-3.1073832524617160,0.10592301826182708
20240212073000,423.38719733374830,3.3228483729421052,0.29524214964309103,0,-18.497496536660265,0,3.4401880404224023,0,0.83649170716518606,0,172.51640744202760,2.2886381450827034,5.8543649176539434,1.0317917414838491,0.80973578958382597,0.57961546231786243,0.49421710787776674,542.78848183570642,3.5004427388993495E-002,110.22424930358233,201.52508194821286,241.17405286789923,301.92129543639481,93.737514954427084,65.311999999999998,-3.3249999999999886,1.6547283850589025,-3.1148904012043772,9.3575571697558438E-002
20240212080000,423.61201493027210,3.4043066799674002,0.25327458517896512,0,-16.797153084463041,0,0.85145237362278536,2,0.81844498158045198,0,183.98742443095313,2.5906654788767804,7.0214295088769676,1.1041110792200475,0.91400487394142338,0.64729434753709025,0.45793749838414038,475.46061804947107,3.9961248689629802E-002,94.933264210132521,173.56828438782136,207.71690645383816,260.03691829541191,93.717841618272558,66.099999999999994,-3.1639999999999873,1.6366871509276877,-2.9350150138006939,0.10095555633205934
20240212083000,423.81719522084160,3.4688969677671362,0.45236093492002033,0,-26.058189398283698,0,1.5483713018093850,1,0.90112834092929961,0,189.91383675044301,2.5479405233835939,6.9270023796453604,1.0749384543289624,0.91434277830630639,0.74025974537557926,0.61224675369004655,732.40701476093773,2.5941859672386835E-002,107.56940981336616,196.67118864247024,235.36518228257358,294.64927876922656,93.711858191228671,66.393000000000001,-2.9719999999999800,1.6459243966343400,-2.7425806844129283,9.8842067702468187E-002
20240212090000,424.09858333484391,3.5577643476597904,0.40055323317389241,0,-29.298538082095877,0,3.8235354740506513,0,1.5081975076414607,0,195.57265919108059,2.6313577211483041,7.4259263022157089,1.1936230108030754,0.94614162269828639,0.73003924686903177,0.57638305809377599,543.39250493226075,3.4965517241296026E-002,103.64465222282976,189.49548002973748,226.77769177468448,283.89875968204359,93.682182412326398,67.313333333333333,-2.8213333333333139,1.6189006389464526,-2.5877841330633942,8.1039975481945109E-002
20240212093000,424.28673525755079,3.6714527603270839,0.51462324616309274,0,-23.248077770122080,0,-0.55083744335283358,2,1.2573258190025036,0,198.01345629058386,3.2289345870159520,8.4606605072172201,1.3170504230850637,1.0662029832574764,0.78776161407001333,0.65360737405238922,998.35871958084090,1.9031235594333382E-002,107.84315941730519,197.17169022642892,235.96415484868396,295.39912134532642,93.648445969727589,68.776666666666671,-2.6923333333333517,1.5613243787721787,-2.4545933621654399,7.0600810907978623E-002
20240212100000,424.57827656759684,3.8709610026977233,0.61855978805793810,0,-16.685878480963421,0,2.9466755537371387,2,1.4969282964997175,0,201.09896059925228,2.7157223120521530,7.1174751293030871,1.2484201810135425,1.0272182986446732,0.81467723300847739,0.71653060416980596,1832.6654505667800,1.0367413209063311E-002,112.99370046134661,206.58852193574995,247.23369731236360,309.50725121729613,93.645926409288194,72.852333333333334,-2.7553333333333399,1.3511799985518860,-2.5027560772365973,5.0062015836048558E-002
20240212103000,424.73643156650661,3.9369578002332464,0.33360921434258733,0,-16.716539468010314,0,2.8692963479564972,0,1.0588131096504949,0,206.30008595412528,2.6990405989866995,6.5683250711730619,1.0590500731608925,0.84473470747210500,0.67150763193086493,0.52626814310624115,724.82377844662744,2.6213268059057018E-002,103.03382021358705,188.37868430196446,225.44117252214903,282.22559617501321,93.653347498480898,73.717666666666659,-2.6856666666666911,1.3149004767855421,-2.4190297427707037,7.3602449688463495E-002
20240212110000,424.92580258328309,3.9621816997572847,0.41028009172849694,0,-18.972983001727755,0,1.5964804083849411,1,0.80217228872892754,0,207.17490529883591,2.5396393748738690,6.9866600324952675,1.1872524562365308,0.85081808276864923,0.70692958592004784,0.58376928946292828,871.62786034872966,2.1798293588732108E-002,107.43529208672668,196.42597866351826,235.07172856527058,294.28190953764806,93.648220714843745,73.509666666666661,-2.5623333333333562,1.3374986954493613,-2.2968984586927377,6.1648931352662924E-002
20240212113000,425.13560232883873,3.9964006558665770,0.40115169394006361,0,-17.784089604059631,0,4.5055613410054489,1,1.3546732662449643,0,209.48407700082936,2.5863778332409741,7.5821473098518934,1.0896992729086525,0.93432781653436237,0.72007837412978992,0.57740363572469633,899.73137476696672,2.1117414078086431E-002,104.93846245083016,191.86097776613025,229.60858840859476,287.44270634128424,93.636135231770837,73.498000000000005,-2.4460000000000264,1.3496840303664084,-2.1697338070339356,8.8480494041556723E-002
20240212120000,425.40595266023678,4.0407524235861807,0.28351531609187836,0,-14.764547393827788,0,3.3369849291894802,1,1.0749645495467897,0,213.44146092594588,2.6229529841333132,5.8812822242873821,0.92480581413068808,0.75633627100362810,0.58686988911915183,0.48558803277500212,644.46673458722739,2.9481738901805776E-002,107.60583401278650,196.73778369591321,235.44487955293084,294.74905029449172,93.608088202256951,73.704666666666668,-2.3389999999999986,1.3498197896669779,-2.0654877412583801,5.3937283088377662E-002
20240212123000,425.78934876820216,4.0751685545391920,0.20764410746381903,0,-22.552261148188244,0,2.3343781540177160,1,1.0329127118918850,1,209.30904398818518,2.1970923910041904,5.7916640227758549,0.86679154642899170,0.71461860343325823,0.49894449164100135,0.41553755326565744,264.37882228559948,7.1866573259317057E-002,108.16863182079523,197.76675758410775,236.67629849350169,296.29064068259908,93.598175273003477,74.703666666666663,-2.4076666666666711,1.2919481800660577,-2.1321726099649823,8.0128496655898995E-002
20240212130000,426.13344544626722,4.1206127642346102,0.20985119329950150,0,-23.127684355361044,0,0.10390789218266279,2,0.74505271471121037,0,206.43246784450139,2.3508222658459434,5.9979361578030623,0.94363028352916756,0.66672177660736953,0.51970105205109585,0.41769151159807294,261.80080931938124,7.2574259985656281E-002,105.13239126154379,192.21554148253665,230.03291062029649,287.97390739842945,93.582385431502544,76.161333333333332,-2.5210000000000150,1.2073128317519541,-2.2469472310976357,9.2808751075504195E-002
20240212133000,426.33281940749964,4.1727916343920528,0.23688124811542194,0,-27.124211825312344,0,1.1479818249567249,2,0.74505728466942300,0,215.72564690661065,2.6411889332612537,6.2669641015284068,0.93727480735230873,0.76844057397560550,0.56485301458335480,0.44362875895752057,267.45130146688530,7.1040970433836156E-002,103.21012234920676,188.70102083455947,225.82692702576614,282.70851503824719,93.583555669704864,78.183666666666667,-2.7043333333333521,1.0899546957885731,-2.4123827752007401,0.11018842984779267
20240212140000,426.49489272218580,4.2698001283104938,0.33225910168579065,0,-16.812281052002085,0,-0.57379112757645523,1,0.97805163294926789,0,226.24973181986374,2.5771771521951283,6.5183739984916729,1.0545592429539667,0.78656064213931987,0.57423744527107845,0.52555420977349576,717.42940185684495,2.6483442065274095E-002,116.64757324419575,213.26896672575216,255.22848351658951,319.51577484914401,93.584440566189244,79.127666666666670,-2.5563333333333276,1.0543148322723659,-2.2556942342122284,9.6574119622652055E-002
20240212143000,426.67902987603333,4.3740676936895238,0.46460225093002372,0,0.22053410275483235,2,-1.8386408156823899,2,0.86638407563448672,0,232.66802268878851,2.6761008419271430,7.9572937127183438,1.2100559654141243,0.87657199439678979,0.69991589040368785,0.62178832017957586,-90575.886057219031,-2.0976885600652284E-004,113.90223997232575,208.24962192563495,249.22160974939879,311.99588169419297,93.584053668185760,79.477000000000004,-2.2903333333333080,1.0573121232960738,-1.9931002866956646,8.2364029355262686E-002
20240212150000,426.85745429969546,4.4629605260979544,0.41785448328230007,0,16.272203555826739,0,1.8503845773342107,1,1.1414425725455659,0,239.78407831039183,3.4489978096116052,8.5642006062023306,1.2964309148086062,1.0966022149123422,0.79903036581823184,0.58986796974748124,-1047.9713763441364,-1.8130266177957818E-002,98.221853182610587,179.58087387116925,214.91244042862425,269.04487297872089,93.573108930555549,80.280666666666662,-2.1560000000000059,1.0260578371315530,-1.8733443968030770,6.5470037727227828E-002
20240212153000,426.90599314331081,4.4969176894414495,0.41625295080431429,0,33.037592180483173,0,4.0190068799133787,0,0.67096254884666751,0,243.64503380645124,2.4067542236416779,6.9858452832389615,1.1198738519327147,0.98902686465527379,0.66460888942652629,0.58884036008437179,-513.48475213560857,-3.7002072449041683E-002,113.65800763197876,207.80308731357087,248.68722186528933,311.32689147606112,93.575816134114589,80.298000000000002,-2.0559999999999832,1.0327628983016524,-1.7710184792412633,0.10695354329542488
20240212160000,426.70293092488765,4.4983969325563198,0.51542639451325600,0,63.858081652196681,0,5.7704750033708150,0,0.60874384494511191,1,245.90846908714849,3.1001628342836356,7.6673206218402923,1.3429034270355777,1.2124822359648657,0.75633671113410483,0.65547967117275385,-366.47808482623759,-5.1844846354206109E-002,111.66835973682862,204.16537639558697,244.33381098079488,305.87693764320244,93.588378189019110,78.968999999999994,-1.8236666666666679,1.1215004699234510,-1.5464329121907667,0.18071414147796372
20240212163000,426.06842656044341,4.4762865195197481,0.76913391323475033,0,40.878148085679769,0,5.0355227670085876,0,1.8435605414299763,0,260.76868261285807,3.0918847921063408,9.3704214003461814,1.4633386246073454,1.1420493967662568,0.87258786400088761,0.80087315405108583,-1044.3605844647479,-1.8192950100407911E-002,116.91185565420884,213.75215925980760,255.80674157075873,320.23968531436691,93.607977790612850,77.632000000000005,-1.6560000000000059,1.2076291817620750,-1.3897083004691240,0.10751886649488124
20240212170000,424.22545896244088,4.3510683785446984,0.83177433087816288,0,54.988747502421006,0,17.399346549969604,0,4.6567012666854959,0,263.94597375120657,4.0650180576811916,10.631632447691114,1.8245113348350517,1.3078692516299866,0.97870184406604477,0.83236980991902476,-871.74704085475435,-2.1795313444792838E-002,109.99871973574714,201.11274196924370,240.68058722617326,301.30353500971717,93.630592710069436,76.786333333333332,-1.8890000000000100,1.2319411852187931,-1.6544068764580970,0.18753472248756464
20240212173000,423.99679255319649,4.3232599892849501,0.52303828386142337,0,38.374546302341564,0,-1.6879592290203416,2,-0.23032928873842823,2,259.78582195229052,3.7342968615780503,9.5213022252838808,1.6412299754432593,1.1644671919932110,0.82936070572431697,0.65958841051693073,-621.74431661396034,-3.0559185652833328E-002,104.25059651639185,190.60333945438936,228.10351655474764,285.55853497859090,93.668063216145839,77.877333333333326,-2.1613333333333458,1.1506567166526964,-1.9174562115139224,0.19626549655554976
20240212180000,423.70352233639858,4.2787122441623753,0.80927783081929017,0,60.995095331606294,0,10.931941410487475,1,2.0085259538795870,0,263.57389624291392,2.9986350168525790,8.3177064069364910,1.6605424576355787,1.2734093151885095,0.94408674981861662,0.82004893698220460,-751.77614433111080,-2.5273480866974250E-002,111.87091594316010,204.53571374274949,244.77701019987018,306.43177047355215,93.677872666666659,78.439666666666668,-2.3969999999999914,1.1020119665719097,-2.1414230448404510,0.15023711837591644
20240212183000,423.21964145558803,4.2070496632698857,0.86901774046627911,0,40.308610034487486,0,4.1273707284933483,0,1.3636204535451797,1,265.43000173564309,3.8957965616387455,9.2128666246869457,1.7526418672869639,1.3651001152086319,0.96542011368645542,0.84918773598089259,-1263.2738113813436,-1.5040286459531838E-002,113.00165298485263,206.60306168504627,247.25109767876748,309.52903441123118,93.685979765625007,79.132999999999996,-2.7420000000000186,1.0396115757564099,-2.4957377124362097,0.10707986186915015
20240212190000,423.11750326400409,4.2013689842036932,0.48518836621827399,0,35.530002905114166,0,2.5972762777952627,1,0.85487975118885828,1,277.36925076170309,3.4670891091428770,7.5142231680281917,1.1998798069936232,1.4803910832013631,0.77109008389718026,0.63451194363343399,-597.90494326334203,-3.1777626550967678E-002,107.13284703388656,195.87301264702432,234.40996947301855,293.45346568133908,93.693268635416672,78.940333333333328,-2.7263333333333435,1.0504326966472377,-2.4732099177042528,9.0568864284232012E-002
20240212193000,422.85059736383283,4.1623583393004537,0.62556071260515833,0,36.999474091620719,0,7.5773837693291499,1,1.7584795568221467,0,278.43257204870179,3.1525082547594172,9.4457780478553826,1.3645753614626257,1.4756447184612111,0.84199009267664127,0.72057680369166599,-840.99848155878715,-2.2592192990388733E-002,110.54867374627146,202.11823329931767,241.88390354220277,302.80994424667756,93.706584269531248,77.534000000000006,-2.6080000000000041,1.1304714989801352,-2.3529213680690759,9.3413019542713902E-002
20240212200000,422.35485858779083,4.1205952361269702,0.70478472323821317,0,31.825766419210296,0,4.9450508031417169,0,1.7899597383547448,0,289.91951070372437,3.3228740017981155,9.8680401074768831,1.5444792704605919,1.2258405203442586,0.87502542421154916,0.76471591789898519,-1168.5670867670794,-1.6259229115005110E-002,112.41867612715295,205.53719405823884,245.97552635586933,307.93217047976225,93.702244036241325,77.324666666666673,-2.7080000000000268,1.1325621686299099,-2.4507760060628243,7.5941979153619041E-002
20240212203000,422.23117732188285,4.1378057994852808,0.39702503787348176,0,8.8843797909094331,0,9.3100308484018210,1,1.5103482364071903,1,290.21814903924212,3.0436750459507422,8.2046698586549240,1.4823785458505445,1.0879115979194600,0.73971645016349075,0.57395689918079384,-1769.9671109575725,-1.0734662741682686E-002,102.21299237730059,186.87794922762157,223.64517593124680,279.97722156391205,93.708608278246032,77.568333333333328,-2.6933333333333280,1.1216133086967279,-2.4300172811190919,6.8154430447763981E-002
20240212210000,422.38754237959137,4.1621427854675517,0.43339770686287188,0,22.614225733184025,0,4.8231325686180524,1,1.4025272840814580,0,291.05315367571859,3.1860260035146490,10.512069942912300,1.2954434464300024,1.1361824624446095,0.82054410282833867,0.59956075801892761,-792.76305098754540,-2.3966808211270303E-002,97.418158749584592,178.11146412240515,213.15393225184005,266.84342941355845,93.729633161892366,78.286000000000001,-2.7353333333333580,1.0823459627078937,-2.4746154674953686,6.2339526647012221E-002
20240212213000,422.53989616107708,4.1747986365994292,0.65061442076129228,0,20.108326716968325,1,7.4121129355062125,1,1.4626121181366853,0,288.71448951174767,3.1723591838218752,8.4212583403865615,1.4743215246246666,1.1442150323066680,0.80386532090102991,0.73438695851918556,-1638.6671677517502,-1.1594788968688487E-002,116.47915994317044,212.96105349881046,254.85999002607576,319.05446472604910,93.749563110677087,79.136666666666670,-2.8369999999999891,1.0321129050333344,-2.5846949428981816,0.10804531197304153
20240212220000,422.75244478974309,4.2266316914931350,0.56690846679716322,0,19.620321516321081,0,2.0884412149470335,0,1.0546663886661807,0,289.09303637854106,3.6139314235271338,9.1694593538540765,1.5309731070828043,1.1673997464607404,0.84350691335990391,0.68516363595980390,-1364.0790008609674,-1.3928812032153378E-002,106.02772108914868,193.85248995820109,231.99191986319249,290.42635450604178,93.770252567491326,81.496666666666670,-3.0629999999999882,0.90009033200975974,-2.7946948089599459,7.2817060508733725E-002
20240212223000,423.01912453344454,4.2882500700689796,0.44596642536219244,0,15.063556589594988,0,-1.0277511080879120,2,0.76673810165593981,0,286.83463677338483,3.1422198349356787,8.0485666944916385,1.3219868222918596,1.1138401460508716,0.75162706593295436,0.60749107513557332,-1238.6278923551940,-1.5339554451557177E-002,105.60510018820621,193.07980416325512,231.06721231334782,289.26873038342592,93.795121043619787,83.450000000000003,-3.1829999999999927,0.79790004203816300,-2.9084511811997800,6.0327473980314156E-002